Regional Weather Roundup
Issued by NWS San Angelo, TX

Home | Current Version | Previous Version | Text Only | Print | Product List | Glossary On
Versions: 1 2 3 4 5 6 7 8 9 10 11 12 13 14 15 16 17 18 19 20 21 22 23 24 25 26 27 28 29 30 31 32 33 34 35 36 37 38 39 40 41 42 43 44 45 46 47 48 49 50
000
ASUS44 KSJT 200410
RWRSJT
WEST CENTRAL TEXAS REGIONAL WEATHER ROUNDUP
NATIONAL WEATHER SERVICE SAN ANGELO TX
1100 PM CDT SAT AUG 19 2017

NOTE: "FAIR" INDICATES FEW OR NO CLOUDS BELOW 12,000 FEET WITH NO
SIGNIFICANT WEATHER AND/OR OBSTRUCTIONS TO VISIBILITY.

TXZ049-054-064>066-071>073-076>078-098-099-113-114-127-128-139-140-
154-155-168>170-200500
...LOCATIONS ACROSS WEST CENTRAL TEXAS...

CITY           SKY/WX    TMP DP  RH WIND       PRES   REMARKS
SAN ANGELO     MOCLDY    83  66  56 E3        30.00R
ABILENE        CLEAR     76  72  87 N3        30.02R
DYESS AFB      CLEAR     74  74  98 CALM      30.00R
JUNCTION       CLEAR     85  61  44 CALM      30.03R
SWEETWATER     CLEAR     75  68  78 E5        30.07R
BROWNWOOD      CLEAR     79  64  61 SE5       30.00R
COLEMAN        PTCLDY    80  67  66 CALM      30.02R
SONORA         CLEAR     84  59  42 SE6       30.08R
OZONA          FAIR      77  66  69 CALM      30.05R
BRADY          NOT AVBL
$$

TEXAS PANHANDLE/OKLAHOMA PANHANDLE

CITY           SKY/WX    TMP DP  RH WIND       PRES   REMARKS
AMARILLO       CLEAR     77  63  61 S15       30.07R
BORGER         PTCLDY    82  64  54 S9        30.02R
CANADIAN       PTCLDY    81  67  63 S22G28    29.98R
DALHART        CLOUDY    76  65  68 S6        30.05F
DUMAS          PTCLDY    72  64  78 S8        30.05S
GUYMON         NOT AVBL
HEREFORD       CLOUDY    76  67  74 S10       30.09S
PAMPA          CLOUDY    77  65  66 S17       30.06R
PERRYTON       PTCLDY    74  68  80 S8        29.99R
$$

SOUTHERN PANHANDLE/SOUTH PLAINS/ROLLING PLAINS

CITY           SKY/WX    TMP DP  RH WIND       PRES   REMARKS
LUBBOCK        MOCLDY    76  64  66 SE13      30.07R
SNYDER         CLEAR     76  65  68 E10       30.04S
CHILDRESS      CLEAR     78  65  63 S9        30.00S
SEMINOLE       PTCLDY    79  62  56 SW6       30.09R
$$

PERMIAN BASIN

CITY           SKY/WX    TMP DP  RH WIND       PRES   REMARKS
MIDLAND        CLEAR     82  61  48 SE7       30.05R
ODESSA         CLEAR     84  60  44 SE9       30.06R
WINK           MOCLDY    79  63  57 CALM      30.03R
$$

FAR WEST/SOUTHWEST MOUNTAINS/TRANS PECOS

CITY           SKY/WX    TMP DP  RH WIND       PRES   REMARKS
ALPINE         CLOUDY    71  60  68 SW5       30.21R
DRYDEN           N/A     83  70  64 CALM      29.99R
EL PASO        CLOUDY    75  61  61 N18G28    30.10R
FORT STOCKTON  CLOUDY    81  58  45 W5        30.07R
GUADALUPE PASS CLOUDY    72  57  59 CALM      30.22R
MARFA          CLOUDY    71  61  70 CALM      30.20R
PECOS          LGT RAIN  78  66  65 SE5       30.03R
$$

DALLAS/FORT WORTH METROPLEX

CITY           SKY/WX    TMP DP  RH WIND       PRES   REMARKS
DFW AIRPORT    MOCLDY    88  71  57 SE9       29.95R
FTW MEACHAM    PTCLDY    89  70  53 SE9       29.96R
DAL-EXECUTIVE  PTCLDY    87  71  58 SE12      29.97R
GRAND PRAIRIE  MOCLDY    87  67  51 E6        29.98R
ADDISON        MOCLDY    88  70  55 SE9       29.99R
MESQUITE         N/A     83  73  70 CALM      29.98R
LANCASTER      CLOUDY    86  71  61 SE3       29.98R
$$

NORTH CENTRAL TEXAS

CITY           SKY/WX    TMP DP  RH WIND       PRES   REMARKS
SHRMAN/DENISON PTCLDY    84  74  70 SE13      29.99R
GAINESVILLE    MOCLDY    79  74  83 CALM      30.00R
BRIDGEPORT     CLOUDY    78  74  89 CALM      29.99R
DENTON         CLOUDY    81  78  91 CALM      29.96R
WAXAHACHIE     PTCLDY    85  72  63 SE5       29.99R
GRANBURY       CLOUDY    80  74  80 CALM      29.99R
$$

WESTERN NORTH TEXAS

CITY           SKY/WX    TMP DP  RH WIND       PRES   REMARKS
WICHITA FALLS  CLOUDY    77  69  76 S5        29.97R
VERNON         PTCLDY    78  65  65 SE5       29.99R
BRECKENRIDGE   MOCLDY    78  71  79 CALM      30.00R
COMANCHE       CLEAR     80  64  58 S5        30.00R
$$

CENTRAL AND SOUTH CENTRAL TEXAS

CITY           SKY/WX    TMP DP  RH WIND       PRES   REMARKS
AUSTIN/BERGSTM CLEAR     88  68  51 S10       29.97R
WACO           CLEAR     86  69  56 S6        29.96R
HILLSBORO      PTCLDY    85  72  63 E8        29.98R
TEMPLE         CLEAR     86  67  52 SE10      29.98R
KILLEEN-GRAY   CLEAR     84  66  55 S5        29.98R
FORT HOOD      CLEAR     86  66  50 E3        29.96R
GEORGETOWN     CLEAR     86  68  54 VRB3      30.00R
LAGO VISTA     FAIR      86  66  50 SE3       30.01R
SAN MARCOS     CLEAR     85  69  58 S9        29.99R
NEW BRAUNFELS  CLEAR     86  69  56 S12       29.97R
RANDOLPH AFB   CLEAR     84  69  59 S10       29.99R
SAN ANTONIO    PTCLDY    86  68  54 SE14      30.00R
STINSON        CLEAR     87  68  52 SE9       29.97R
PLEASANTON     NOT AVBL
LA GRANGE      CLEAR     86  72  62 S5        29.97R
GIDDINGS       CLEAR     85  68  56 S7        29.99R
$$

EAST TEXAS

CITY           SKY/WX    TMP DP  RH WIND       PRES   REMARKS
PARIS          CLOUDY    81  76  84 SE6       29.99R
CLARKSVILLE    NOT AVBL
TYLER          CLOUDY    82  77  84 SE6       29.99R
LONGVIEW       PTCLDY    82  78  88 SE5       29.98R
PALESTINE      CLEAR     84  73  69 E5        30.00R
NACOGDOCHES    CLEAR     81  76  84 CALM      30.01R
$$

TEXAS HILL COUNTRY AND EDWARDS PLATEAU

CITY           SKY/WX    TMP DP  RH WIND       PRES   REMARKS
LLANO          CLEAR     82  64  54 CALM      30.02R
HORSESHOE BAY  FAIR      84  65  52 S3        30.00R
KERRVILLE      CLEAR     78  68  70 CALM      30.03R
FREDERICKSBRG  CLEAR     79  61  53 CALM      30.04R
ROCKSPRINGS    NOT AVBL
HONDO          NOT AVBL
UVALDE         CLEAR     86  63  45 E8        29.97R
DEL RIO        CLEAR     89  60  37 E8        29.93R
$$

SOUTHEAST TEXAS

CITY           SKY/WX    TMP DP  RH WIND       PRES   REMARKS
COLLEGE STN    CLEAR     87  71  58 SE14      29.98R
CALDWELL       NOT AVBL
CROCKETT       CLEAR     84  73  70 SE3       30.02R
BRENHAM        CLEAR     86  74  68 S7        30.00R
HUNTSVILLE     CLEAR     87  70  56 S6        29.99R
CONROE         CLEAR     82  75  79 S3        30.00R
HOUSTON BUSH   CLEAR     86  73  65 S6        29.99R
HOUSTON HOBBY  PTCLDY    84  75  74 S5        29.99R
PERLAND        CLEAR     84  75  74 CALM      30.00R
WHARTON        CLEAR     79  74  85 CALM      30.01R
$$

THE UPPER TEXAS COAST

CITY           SKY/WX    TMP DP  RH WIND       PRES   REMARKS
ORANGE         PTCLDY    81  79  95 CALM      30.01R
PORT ARTHUR    CLEAR    N/A N/A N/A S3        29.99R
GALVESTON      CLEAR     85  79  82 S9        30.00R
ANGLETON       CLEAR     78  76  93 CALM      29.99R
BAY CITY       CLEAR     81  76  86 CALM      29.99R
$$

TEXAS COASTAL BEND, RIO GRANDE PLAINS DEEP SOUTH TEXAS

CITY           SKY/WX    TMP DP  RH WIND       PRES   REMARKS
VICTORIA       CLEAR     81  75  82 S9        30.00R
BEEVILLE       FAIR      82  75  81 SE6       30.00R
ROCKPORT         N/A    N/A N/A N/A SE13      29.98R
PORT ARANSAS   CLEAR     83  77  81 SE9       29.99R
PORT LAVACA    CLEAR     79  75  86 S7        30.00R
CORPUS CHRISTI PTCLDY    83  77  82 SE8       29.98R
KINGSVILLE NAS PTCLDY    83  79  88 SE9       29.98R
COTULLA        CLEAR     87  67  51 SE16      29.95R
LAREDO         CLEAR     88  72  58 SE24      29.95R
BROWNSVILLE    CLEAR     82  78  88 SE7       29.98R
PORT ISABEL    CLEAR     84  78  82 SE14      29.97R
HEBBRONVILLE   CLEAR     83  69  63 SE13      30.00R
MCALLEN        CLEAR     85  74  69 SE12      29.97R
WESLACO        CLEAR     83  74  75 SE8       29.97R
FALFURRIAS     CLEAR     83  75  78 SE7       29.98R
EDINBURG       CLEAR     84  73  69 SE8       29.98R
$$




USA.gov is the U.S. government's official web portal to all federal, state and local government web resources and services.